Location: Colorado Springs
(38.8340°N, 104.8210°W)
Time: 00:03:43
(UTC-07:00)

Vanguard 2 Rocket - All Passes

Search period start: 22 February 2018 00:00
Search period end: 04 March 2018 00:00
Orbit: 555 x 3327 km, 32.9° (Epoch: 21 February)

Date Brightness Start Highest point End Pass type
(mag) Time Alt. Az. Time Alt. Az. Time Alt. Az.
22 Feb - 00:13:52 10° WSW 00:27:57 72° S 00:48:11 10° E visible
22 Feb - 02:28:40 10° W 02:45:56 62° SSW 03:05:26 10° SE visible
22 Feb - 04:46:01 10° W 05:02:54 37° SW 05:18:33 10° SSE visible
22 Feb - 07:15:15 10° WSW 07:17:23 10° SW 07:19:29 10° SW daylight
22 Feb - 18:58:26 10° SE 18:59:37 10° SE 19:00:53 10° ESE visible
22 Feb - 21:02:42 10° SW 21:11:31 42° SSE 21:26:00 10° E visible
22 Feb - 23:14:21 10° WSW 23:26:34 69° S 23:45:49 10° E visible
23 Feb - 01:28:16 10° W 01:44:01 68° SSW 02:04:14 10° ESE visible
23 Feb - 03:44:16 10° W 04:01:34 46° SSW 04:19:11 10° SE visible
23 Feb - 06:05:31 10° W 06:17:04 19° SW 06:27:41 10° SSW visible
23 Feb - 20:04:50 10° SSW 20:11:59 29° SE 20:23:01 10° E visible
23 Feb - 22:15:14 10° WSW 22:25:41 62° SSE 22:43:13 10° E visible
24 Feb - 00:28:18 10° W 00:42:17 71° S 01:02:25 10° ESE visible
24 Feb - 02:43:15 10° W 02:59:57 54° SSW 03:19:00 10° SE visible
24 Feb - 05:01:34 10° W 05:16:20 27° SW 05:30:29 10° S visible
24 Feb - 19:07:58 10° S 19:12:54 17° SE 19:19:33 10° E visible
24 Feb - 21:16:32 10° SW 21:25:22 51° SSE 21:40:32 10° E visible
24 Feb - 23:28:44 10° WSW 23:40:53 70° S 00:00:08 10° E visible
25 Feb - 01:42:47 10° W 01:58:13 61° SSW 02:18:04 10° SE visible
25 Feb - 03:59:17 10° W 04:15:14 36° SW 04:31:46 10° SSE visible
25 Feb - 06:27:11 10° WSW 06:30:22 11° SW 06:33:31 10° SW daylight
25 Feb - 20:18:15 10° SSW 20:25:38 39° SSE 20:37:52 10° E visible
25 Feb - 22:29:32 10° WSW 22:39:55 67° S 22:57:35 10° E visible
26 Feb - 00:42:49 10° W 00:56:35 66° SSW 01:16:27 10° ESE visible
26 Feb - 02:58:00 10° W 03:13:50 44° SSW 03:32:03 10° SSE visible
26 Feb - 05:18:28 10° W 05:29:46 18° SW 05:40:54 10° S visible
26 Feb - 19:20:35 10° SSW 19:26:23 26° SE 19:35:10 10° E visible
26 Feb - 21:30:40 10° WSW 21:39:28 60° SSE 21:54:57 10° E visible
26 Feb - 23:43:12 10° W 23:55:14 69° S 00:14:20 10° ESE visible
27 Feb - 01:57:24 10° W 02:12:19 52° SSW 02:31:29 10° SE visible
27 Feb - 04:14:57 10° W 04:28:51 26° SW 04:43:25 10° S visible
27 Feb - 18:24:05 10° SSE 18:27:32 14° SE 18:31:52 10° ESE visible
27 Feb - 20:32:08 10° SW 20:39:32 48° SSE 20:52:26 10° E visible
27 Feb - 22:43:57 10° WSW 22:54:15 68° S 23:11:52 10° E visible
28 Feb - 00:57:22 10° W 01:10:50 58° SSW 01:30:12 10° SE visible
28 Feb - 03:13:07 10° W 03:27:40 34° SW 03:44:24 10° SSE visible
28 Feb - 05:41:19 10° SW 05:43:18 10° SW 05:45:17 10° SW visible
28 Feb - 19:34:01 10° SSW 19:40:07 35° SSE 19:50:05 10° E visible
28 Feb - 21:44:59 10° WSW 21:53:44 65° S 22:09:19 10° E visible
28 Feb - 23:57:45 10° W 00:09:34 63° S 00:28:19 10° ESE visible
01 Mar - 02:12:14 10° W 02:26:19 42° SSW 02:44:22 10° SSE visible
01 Mar - 04:32:06 10° WSW 04:42:29 17° SW 04:53:24 10° S visible
01 Mar - 18:36:29 10° S 18:41:06 22° SE 18:47:46 10° E visible
01 Mar - 20:46:18 10° WSW 20:53:41 57° SSE 21:06:51 10° E visible
01 Mar - 22:58:26 10° W 23:08:38 66° S 23:26:02 10° ESE visible
02 Mar - 01:12:02 10° W 01:25:01 49° SSW 01:43:29 10° SE visible
02 Mar - 03:28:56 10° W 03:41:28 25° SW 03:55:45 10° S visible
02 Mar - 17:40:39 10° SSE 17:42:24 11° SE 17:44:21 10° ESE daylight
02 Mar - 19:47:56 10° SW 19:54:06 45° SSE 20:04:41 10° E visible
02 Mar - 21:59:26 10° WSW 22:08:06 66° S 22:23:36 10° ESE visible
03 Mar - 00:12:19 10° W 00:23:52 55° SSW 00:41:58 10° SE visible
03 Mar - 02:27:27 10° W 02:40:20 32° SSW 02:56:29 10° SSE visible
03 Mar - 18:49:54 10° SSW 18:54:55 31° SSE 19:02:45 10° E visible
03 Mar - 21:00:40 10° WSW 21:08:00 62° S 21:21:14 10° E visible
03 Mar - 23:13:00 10° W 23:23:00 60° SSW 23:39:59 10° ESE visible
